Showing default

COSMOS 2424 (GLONASS), 29672

Orbit data source: Space-Track

COSMOS 2424 (GLONASS), 29672 is a Commonwealth of Independent States-origin payload satellite in MEO that was launched on Mon, 25 Dec 2006 UTC via a PROTON-K/DM-2 launch vehicle from the Tyuratam Missile And Space Complex (TTMTR). Payload-class satellites include a variety of spacecraft equipped with specific instruments for various scientific and technological missions. These include communications satellites like Starlink; space stations such as the ISS; scientific satellites like the Hubble; Earth observation satellites from companies like Planet Labs, Umbra, and HawkEye 360; GPS; miniature CubeSats for education and research; and military/defense satellites.

Loading next visibility...
Identifier
29672, 2006-062C
Orbit
MEO
Country
Flag of CISCIS
Related business
Manufacturer
Resehetnev ISS
Mission
Non-operational Defense Navigation
Bus & Motor
URAGAN, Unknown motor
Mass
1,450 kg wet, ~1,200 kg dry
Launch date (UTC)
2006-12-25 (19 years ago)
Launch vehicle
PROTON-K/DM-2
Launch site
Tyuratam Missile And Space Complex (TTMTR)
Object type
Payload
Rocket body
Debris
Shape & HBR
Cyl + 1 Arm + 2 Pan, 3.9 m
Radar Cross Section
8.145 m², Large (>1 m²)

Expand to show TLE details & history
Last TLE update: 3 days ago

TLE from 3 days ago
0 COSMOS 2424 (GLONASS)
1 29672U 06062C   26170.23653469  .00000055  00000-0  00000-0 0  9994
2 29672  64.6968 194.2318 0019652 177.4553 182.6031  2.13122817151623
Epoch: 2026-06-19T05:40Z
TLE epoch observation values (Epoch: 2026-06-19T05:40:36.597Z)
Latitude
-0.00005°
Longitude
-158.38566°
Altitude
19,178.852 km
Speed
3.945 km/s
True Right ascension
12h 56m 56s
True Declination
0° 00' 00"
Sunlit
Object was in daylight at epoch
Visualization orbit readout
Latitude
Unknown
Longitude
Unknown
Altitude
Unknown
Speed
Unknown
Apparent Right ascension
Unknown
Apparent Declination
Unknown
Sunlit
N/A
Visualization observer readout
Local Sidereal Time
23:20:06
Azimuth
Unknown
Elevation
Unknown
Doppler factor
Unknown
Orbital elements
Apogee altitude
19,177.976 km
Perigee altitude
19,077.727 km
Semi-major axis
25,505.989 km
Eccentricity
0.00197
Inclination
64.6968°
RAAN
194.2318°
Arg. of periapsis
177.4553°
True anomaly
182.5929°
Mean anomaly
182.6031°
Eccentric anomaly
182.598°
Mean motion
0.53282 °/min
Orbital period
675.65 mins
BSTAR
0
Loading maneuver chart data...
Computing Atmospheric mass density...
Loading historical data...
Loading historical data...
Loading historical data...
Loading historical data...
Loading historical data...
Loading historical data...
Loading historical data...

Documentation

Showing up to 5 results
|